Vorticity
nan nan nan nan nan nan nan nan nan nan nan nan nan nan nan nan nan nan nan nan nan nan nan nan nan nan nan
nan 8 10 10 9 8 7 6 6 7 9 9 4 6 7 8 8 10 9 8 7 7 9 11 10 8 nan
nan 8 11 10 8 9 9 8 6 9 12 5 2 6 7 10 11 8 6 7 10 11 11 9 8 8 nan
nan 9 9 10 9 10 9 8 9 11 11 2 4 9 10 10 8 7 9 11 12 11 8 8 9 9 nan
nan 9 10 11 9 8 9 8 10 10 7 6 10 11 10 8 6 7 11 14 12 7 6 9 10 10 nan
nan 11 9 9 11 10 8 9 9 9 7 10 11 8 8 4 6 13 14 9 6 8 9 9 9 9 nan
nan 11 12 11 9 9 9 8 9 9 9 10 9 8 7 5 9 13 10 2 4 9 8 8 10 12 nan
nan 15 15 13 9 10 10 9 10 10 11 9 7 7 8 9 10 10 3 1 6 7 8 10 13 11 nan
nan 12 11 11 12 10 8 10 12 10 9 9 7 9 12 12 9 4 5 8 7 6 9 11 10 16 nan
nan 5 7 7 8 11 12 10 10 10 7 7 10 11 13 10 8 8 10 8 9 12 11 8 14 17 nan
nan 6 6 7 7 10 11 12 10 8 5 10 10 9 9 7 10 12 7 10 13 12 10 8 9 11 nan
nan 8 8 8 9 9 10 10 9 8 10 12 11 9 8 9 9 8 9 12 11 10 10 8 11 13 nan
nan 8 9 10 10 9 7 8 10 12 12 13 11 9 10 9 7 5 10 13 10 8 8 12 14 14 nan
nan 9 9 10 9 9 8 10 12 10 11 12 10 9 9 9 9 9 10 8 9 10 11 11 11 11 nan
nan 9 9 9 8 10 10 9 9 9 11 12 12 13 13 12 9 10 9 9 9 8 11 12 11 11 nan
nan 9 9 9 9 9 10 10 9 9 9 8 9 14 16 17 11 6 8 8 10 11 12 11 10 11 nan
nan nan nan nan nan nan nan nan nan nan nan nan nan nan nan nan nan nan nan nan nan nan nan nan nan nan nan
CAPE
0 0 0 0 0 0 0 0 0 0 0 0 0 0 0 0 0 0 0 0 0 1 4 7 12 19 21
0 0 0 0 0 0 0 0 0 0 0 0 0 0 0 0 0 0 0 0 0 0 4 12 18 22 29
0 0 0 0 0 0 0 0 0 0 0 0 0 0 0 0 0 0 0 0 0 7 10 14 20 26 33
0 0 0 0 0 0 0 0 0 0 0 0 0 0 0 0 0 0 0 3 6 10 14 11 19 29 31
0 0 0 0 0 0 0 0 0 0 0 0 0 0 0 0 0 0 1 5 7 12 14 20 23 23 22
0 0 0 0 0 0 0 0 0 0 0 0 0 0 0 0 0 0 3 5 3 5 10 13 13 18 20
0 0 0 0 0 0 0 0 0 0 0 0 0 0 0 0 0 0 0 0 1 3 5 8 12 16 15
0 0 0 0 0 0 0 0 0 0 0 0 0 0 0 0 0 0 0 0 0 2 5 10 11 13 11
0 0 0 0 0 0 0 0 0 0 0 0 0 0 0 0 0 0 0 0 0 2 4 4 4 10 7
1 0 0 0 0 0 0 0 0 0 2 0 0 2 2 0 0 0 0 0 0 0 0 0 2 6 6
0 0 0 0 0 0 0 0 0 0 0 5 5 5 6 5 0 0 0 0 0 0 0 0 2 7 7
0 0 0 0 0 0 0 0 0 0 0 0 3 6 4 3 3 0 0 0 0 0 0 1 1 3 5
0 0 0 0 0 0 0 0 0 0 0 0 4 3 6 3 3 2 10 0 0 1 0 0 2 3 7
0 0 0 0 0 0 0 0 0 0 0 0 0 2 4 3 5 3 0 6 3 4 6 8 3 2 3
0 0 0 0 0 0 0 1 0 0 0 0 0 0 1 3 3 1 3 9 7 12 10 10 4 5 5
0 0 0 0 1 0 0 0 0 0 1 0 0 0 0 0 0 4 9 13 10 9 7 9 9 4 10
0 0 0 0 0 0 0 0 0 0 0 0 0 1 2 4 0 0 8 5 10 13 15 14 17 6 11